THOR ABLESTAR DEB, 355

Orbit data source: Space-Track

THOR ABLESTAR DEB, 355 is space debris in LEO originally from a launch on Thu, 29 Jun 1961 UTC launched from the Air Force Eastern Test Range (AFETR). Debris objects in space refer to the collection of defunct objects orbiting the Earth. Examples of debris include non-operational satellites, rocket bodies, and fragments generated from explosions, collisions, or faulty payload assembly.

Loading next visibility...
Identifier
355, 1961-015DV
Orbit
LEO
Country
Flag of USUS
Related business
Manufacturer
Unknown
Mission
Spacecraft
Bus & Motor
Unknown
Mass
Unknown
Launch date (UTC)
1961-06-29 (65 years ago)
Launch vehicle
Unknown
Launch site
Air Force Eastern Test Range (AFETR)
Object type
Payload
Rocket body
Debris
Shape & HBR
Unknown shape, 0.1 m
Radar Cross Section
Medium (>0.1 m² and <1 m²)

Expand to show TLE details & history
Last TLE update: 1 day ago

TLE from 1 day ago
0 THOR ABLESTAR DEB
1 00355U 61015DV  26235.42556814  .00000281  00000-0  58488-3 0  9996
2 00355  67.2232 222.0217 0242037 160.3221 354.0581 13.34213483157995
Epoch: 2026-08-23T10:12Z
TLE epoch observation values (Epoch: 2026-08-23T10:12:49.087Z)
Latitude
23.80187°
Longitude
-93.52127°
Altitude
952.207 km
Speed
7.466 km/s
True Right ascension
02h 05m 37s
True Declination
23° 40' 43"
Sunlit
Object was in daylight at epoch
Visualization orbit readout
Latitude
Unknown
Longitude
Unknown
Altitude
Unknown
Speed
Unknown
Apparent Right ascension
Unknown
Apparent Declination
Unknown
Sunlit
N/A
Visualization observer readout
Local Sidereal Time
05:48:08
Azimuth
Unknown
Elevation
Unknown
Doppler factor
Unknown
Orbital elements
Apogee altitude
1,311.01 km
Perigee altitude
947.594 km
Semi-major axis
7,507.439 km
Eccentricity
0.0242
Inclination
67.2232°
RAAN
222.0217°
Arg. of periapsis
160.3221°
True anomaly
353.76209°
Mean anomaly
354.0581°
Eccentric anomaly
353.911°
Mean motion
3.33661 °/min
Orbital period
107.89 mins
BSTAR
0.00058488
Loading maneuver chart data...
Computing Atmospheric mass density...
Loading historical data...
Loading historical data...
Loading historical data...
Loading historical data...
Loading historical data...
Loading historical data...
Loading historical data...

Documentation

Showing up to 5 results
|